#�ϑ�����,���ϕ���,���ϕ���,�ő啗��,�ő啗����������,�ő�u�ԕ���,�ő�u�ԕ�����������
#(�N����),(m/s)   ,(16����),(m/s)   ,(16����)        ,(m/s)       ,(16����)            
2012/9/5 0:01,0.3,14,0.4,15,0.8,15
2012/9/5 0:02,0.3,15,0.3,15,0.8,16
2012/9/5 0:03,0.3,15,0.3,15,1,1
2012/9/5 0:04,0.3,15,0.3,16,1.1,16
2012/9/5 0:05,0.4,15,0.4,15,1.4,15
2012/9/5 0:06,0.4,15,0.4,15,0.9,16
2012/9/5 0:07,0.5,16,0.5,15,1,16
2012/9/5 0:08,0.6,16,0.6,15,1.1,16
2012/9/5 0:09,0.7,16,0.7,16,0.9,16
2012/9/5 0:10,0.7,16,0.7,16,1,16
2012/9/5 0:11,0.7,16,0.7,16,1,15
2012/9/5 0:12,0.8,16,0.8,16,1.3,16
2012/9/5 0:13,0.8,16,0.8,16,1.1,16
2012/9/5 0:14,0.8,16,0.8,16,1.1,16
2012/9/5 0:15,0.8,16,0.8,16,1,2
2012/9/5 0:16,0.8,16,0.8,16,1,1
2012/9/5 0:17,0.8,16,0.8,16,1.1,16
2012/9/5 0:18,0.8,16,0.8,16,1.3,16
2012/9/5 0:19,0.8,16,0.8,16,1.3,16
2012/9/5 0:20,0.8,16,0.8,16,1.3,16
2012/9/5 0:21,0.8,16,0.8,16,1,16
2012/9/5 0:22,0.8,16,0.8,16,0.9,15
2012/9/5 0:23,0.8,16,0.8,16,1,16
2012/9/5 0:24,0.8,16,0.8,16,1.6,14
2012/9/5 0:25,0.9,16,0.9,16,1.8,15
2012/9/5 0:26,1,16,1,16,2,15
2012/9/5 0:27,1,16,1,16,1.9,15
2012/9/5 0:28,1.1,15,1.1,16,2.2,15
2012/9/5 0:29,1.1,15,1.1,16,1.5,15
2012/9/5 0:30,1.1,15,1.1,16,1.4,16
2012/9/5 0:31,1.1,15,1.1,16,1.5,15
2012/9/5 0:32,1.2,15,1.2,15,1.6,16
2012/9/5 0:33,1.3,15,1.3,15,1.6,15
2012/9/5 0:34,1.3,15,1.3,15,2.2,16
2012/9/5 0:35,1.3,15,1.3,15,2,1
2012/9/5 0:36,1.3,15,1.3,15,2.1,16
2012/9/5 0:37,1.2,15,1.3,15,1.9,15
2012/9/5 0:38,1.2,16,1.2,15,1.4,15
2012/9/5 0:39,1.2,16,1.2,15,1.4,16
2012/9/5 0:40,1.2,16,1.2,15,1.1,16
2012/9/5 0:41,1.1,16,1.2,15,1.1,15
2012/9/5 0:42,1.1,16,1.1,15,1.5,16
2012/9/5 0:43,1.2,16,1.2,15,1.8,15
2012/9/5 0:44,1.1,16,1.2,15,1.5,16
2012/9/5 0:45,1,16,1.1,15,1.1,16
2012/9/5 0:46,1,15,1,15,1.4,16
2012/9/5 0:47,1,15,1,15,1.5,15
2012/9/5 0:48,0.9,15,1,16,1.1,15
2012/9/5 0:49,0.9,15,0.9,16,1,16
2012/9/5 0:50,0.9,15,0.9,16,1.4,16
2012/9/5 0:51,0.9,15,0.9,16,1.3,16
2012/9/5 0:52,0.9,16,0.9,16,0.8,1
2012/9/5 0:53,0.8,16,0.8,16,1.1,1
2012/9/5 0:54,0.8,16,0.8,16,1.1,1
2012/9/5 0:55,0.8,16,0.8,16,1,16
2012/9/5 0:56,0.8,16,0.8,15,1,16
2012/9/5 0:57,0.8,16,0.8,15,1.1,16
2012/9/5 0:58,0.8,16,0.8,15,1.4,16
2012/9/5 0:59,0.9,16,0.9,15,1.4,16
2012/9/5 1:00,0.9,16,0.9,15,1.5,16
2012/9/5 1:01,0.9,16,0.9,15,1.5,16
2012/9/5 1:02,1,16,1,16,1.8,16
2012/9/5 1:03,1,16,1,16,1.5,16
2012/9/5 1:04,1,16,1,16,1.8,15
2012/9/5 1:05,1,16,1,16,1.5,16
2012/9/5 1:06,1.1,15,1.1,16,1.6,15
2012/9/5 1:07,1,15,1.1,16,1,15
2012/9/5 1:08,1,15,1,16,0.9,15
2012/9/5 1:09,1,15,1,16,1.1,15
2012/9/5 1:10,0.9,15,1,16,0.8,15
2012/9/5 1:11,0.8,15,0.9,16,0.5,14
2012/9/5 1:12,0.7,15,0.8,16,0.4,10
2012/9/5 1:13,0.7,14,0.7,16,0.9,9
2012/9/5 1:14,0.6,14,0.7,16,0.8,10
2012/9/5 1:15,0.6,13,0.6,16,0.5,8
2012/9/5 1:16,0.5,12,0.6,15,0.6,9
2012/9/5 1:17,0.4,11,0.5,15,0.5,8
2012/9/5 1:18,0.4,10,0.4,15,0.1,8
2012/9/5 1:19,0.3,10,0.4,15,0.4,16
2012/9/5 1:20,0.3,10,0.3,15,0.5,1
2012/9/5 1:21,0.3,9,0.3,15,0.6,1
2012/9/5 1:22,0.3,9,0.3,15,0.5,2
2012/9/5 1:23,0.3,6,0.3,14,0.4,16
2012/9/5 1:24,0.2,1,0.3,14,0,16
2012/9/5 1:25,0.2,1,0.2,13,0,16
2012/9/5 1:26,0.1,16,0.2,12,0.1,16
2012/9/5 1:27,0.1,16,0.1,11,0.4,14
2012/9/5 1:28,0.2,16,0.2,10,0.5,12
2012/9/5 1:29,0.2,15,0.2,10,0.5,10
2012/9/5 1:30,0.2,15,0.2,10,0.5,12
2012/9/5 1:31,0.2,14,0.2,9,0.6,12
2012/9/5 1:32,0.2,14,0.2,9,1,13
2012/9/5 1:33,0.3,13,0.3,5,1,13
2012/9/5 1:34,0.4,13,0.4,13,1.1,15
2012/9/5 1:35,0.4,13,0.4,13,1,14
2012/9/5 1:36,0.5,13,0.5,13,0.6,14
2012/9/5 1:37,0.5,13,0.5,13,0.3,16
2012/9/5 1:38,0.4,13,0.5,13,0,14
2012/9/5 1:39,0.4,14,0.4,13,0,2
2012/9/5 1:40,0.4,15,0.4,13,0,2
2012/9/5 1:41,0.4,15,0.4,13,0.8,6
2012/9/5 1:42,0.3,16,0.4,13,0.9,6
2012/9/5 1:43,0.3,1,0.3,13,0.9,6
2012/9/5 1:44,0.3,3,0.3,13,0.6,6
2012/9/5 1:45,0.2,3,0.3,13,0.1,6
2012/9/5 1:46,0.2,4,0.2,13,0.5,10
2012/9/5 1:47,0.2,5,0.2,13,0.6,10
2012/9/5 1:48,0.3,6,0.3,13,0.6,9
2012/9/5 1:49,0.3,7,0.3,14,0.5,8
2012/9/5 1:50,0.3,8,0.3,15,0.8,9
2012/9/5 1:51,0.4,8,0.4,15,0.9,8
2012/9/5 1:52,0.4,8,0.4,8,0.9,8
2012/9/5 1:53,0.3,8,0.3,8,0.3,8
2012/9/5 1:54,0.3,9,0.3,8,0.3,9
2012/9/5 1:55,0.3,9,0.3,8,0.1,9
2012/9/5 1:56,0.3,8,0.3,8,0.5,1
2012/9/5 1:57,0.3,8,0.3,8,0.8,16
2012/9/5 1:58,0.3,8,0.3,8,0.9,1
2012/9/5 1:59,0.4,8,0.4,8,1,16
2012/9/5 2:00,0.4,7,0.4,8,1.1,16
2012/9/5 2:01,0.4,1,0.4,8,1,16
2012/9/5 2:02,0.4,1,0.4,8,1,16
2012/9/5 2:03,0.4,16,0.4,8,0.9,15
2012/9/5 2:04,0.5,1,0.5,16,0.9,1
2012/9/5 2:05,0.6,1,0.6,1,1,1
2012/9/5 2:06,0.6,16,0.6,1,0.9,16
2012/9/5 2:07,0.6,1,0.6,1,0.8,1
2012/9/5 2:08,0.7,1,0.7,1,0.9,16
2012/9/5 2:09,0.7,16,0.7,1,1.3,16
2012/9/5 2:10,0.7,16,0.7,1,1.4,16
2012/9/5 4:28,0.6,9,0.6,9,0.8,10
2012/9/5 4:29,0.6,10,0.6,9,1,10
2012/9/5 4:30,0.6,10,0.7,10,1,9
2012/9/5 4:31,0.5,10,0.6,10,0.5,9
2012/9/5 4:32,0.5,10,0.5,10,1.1,10
2012/9/5 4:33,0.6,10,0.6,10,1.5,10
2012/9/5 4:34,0.6,10,0.6,10,1.3,10
2012/9/5 4:35,0.6,10,0.6,10,1,12
2012/9/5 4:36,0.6,11,0.6,10,0.8,12
2012/9/5 4:37,0.6,11,0.6,10,0.8,11
2012/9/5 4:38,0.6,11,0.6,10,0.8,10
2012/9/5 4:39,0.6,11,0.6,10,0.5,11
2012/9/5 4:40,0.5,11,0.6,10,0.5,11
2012/9/5 4:41,0.6,11,0.6,10,0.6,11
2012/9/5 4:42,0.6,11,0.6,10,1,12
2012/9/5 4:43,0.6,12,0.6,10,1.1,12
2012/9/5 4:44,0.6,12,0.6,10,1.1,11
2012/9/5 5:22,0.6,2,0.6,2,0.8,2
2012/9/5 5:23,0.8,1,0.8,1,1,1
2012/9/5 5:24,0.8,1,0.9,1,1,2
2012/9/5 5:25,0.9,1,0.9,1,1.3,16
2012/9/5 5:26,0.9,1,0.9,1,1.4,1
2012/9/5 5:27,1,1,1,1,1.5,1
2012/9/5 5:28,1.1,1,1.1,1,1.6,1
2012/9/5 5:29,1.1,1,1.1,1,1.1,16
2012/9/5 5:30,1,1,1.1,1,0.9,2
2012/9/5 5:31,0.9,1,0.9,1,0.8,4
2012/9/5 5:32,0.9,2,0.9,1,0.9,6
2012/9/5 5:33,0.8,2,0.9,1,1,6
2012/9/5 5:34,0.8,3,0.8,1,0.8,9
2012/9/5 5:35,0.8,3,0.8,1,1,5
2012/9/5 5:36,0.7,4,0.8,1,0.9,4
2012/9/5 5:37,0.6,4,0.7,1,0.5,4
2012/9/5 5:38,0.5,4,0.6,1,0.5,4
2012/9/5 5:39,0.4,5,0.5,1,0.4,7
2012/9/5 5:40,0.4,5,0.4,1,0.3,3
2012/9/5 5:41,0.4,5,0.4,1,0.6,15
2012/9/5 5:42,0.3,4,0.4,2,0.5,15
2012/9/5 5:43,0.3,3,0.4,2,1,14
2012/9/5 5:44,0.4,2,0.4,3,1.4,14
2012/9/5 5:45,0.4,1,0.4,3,1.1,14
2012/9/5 5:46,0.4,16,0.4,4,0.9,15
2012/9/5 6:02,0.5,14,0.5,14,0.5,14
2012/9/5 6:03,0.3,14,0.5,14,0.5,14
2012/9/5 6:04,0.2,13,0.3,14,0.4,14
2012/9/5 6:05,0.1,12,0.2,14,0.3,12
2012/9/5 6:06,0.1,11,0.1,14,0.1,10
2012/9/5 6:07,0.1,11,0.1,14,0.4,4
2012/9/5 6:08,0.2,11,0.2,14,0.5,3
2012/9/5 6:09,0.2,9,0.2,14,0.5,3
2012/9/5 6:10,0.2,4,0.2,14,0.5,3
2012/9/5 6:11,0.2,2,0.2,14,0.4,2
2012/9/5 6:12,0.2,2,0.2,14,0.8,2
2012/9/5 6:13,0.3,2,0.3,14,1.1,2
2012/9/5 6:14,0.3,3,0.3,2,0.9,2
2012/9/5 6:40,0.3,12,0.3,12,0.3,12
2012/9/5 6:41,0.2,10,0.3,12,0.5,11
2012/9/5 6:42,0.3,10,0.3,12,0.5,10
2012/9/5 6:43,0.3,10,0.3,12,0.5,10
2012/9/5 6:44,0.3,10,0.3,12,0.4,10
2012/9/5 6:45,0.2,10,0.3,12,0.4,10
2012/9/5 6:46,0.2,10,0.2,12,0.6,4
2012/9/5 6:47,0.2,9,0.2,12,0.6,6
2012/9/5 6:48,0.3,9,0.3,12,0.6,4
2012/9/5 6:49,0.3,9,0.3,12,0.6,3
2012/9/5 6:50,0.3,8,0.3,12,0.5,2
2012/9/5 6:51,0.3,6,0.3,10,0.6,2
2012/9/5 6:52,0.3,4,0.3,10,0.5,2
2012/9/5 6:53,0.3,3,0.3,10,0.5,1
2012/9/5 6:54,0.3,3,0.3,10,0.1,1
2012/9/5 6:55,0.2,3,0.3,9,0,6
2012/9/5 6:56,0.2,4,0.2,9,0.1,6
2012/9/5 6:57,0.2,4,0.2,9,0.4,8
2012/9/5 6:58,0.2,4,0.2,9,0.3,8
2012/9/5 6:59,0.1,4,0.2,8,0.4,10
2012/9/5 7:00,0.1,6,0.1,8,0.4,10
2012/9/5 7:01,0.1,7,0.1,6,0.4,10
2012/9/5 7:02,0.1,9,0.1,4,0.5,11
2012/9/5 10:47,1.6,9,1.6,9,1.8,10
2012/9/5 10:48,1,13,1.6,9,1.8,10
2012/9/5 10:49,1.7,12,1.7,12,3.1,10
2012/9/5 10:50,2.3,11,2.3,11,4.9,10
2012/9/5 10:51,2.1,11,2.3,11,4.1,8
2012/9/5 10:52,1.9,10,2.1,11,2,6
2012/9/5 10:53,1.9,9,1.9,11,3.2,7
2012/9/5 10:54,1.8,9,1.9,11,2.7,7
2012/9/5 10:55,1.7,8,1.8,11,1.3,5
2012/9/5 10:56,1.6,8,1.7,11,1.1,5
2012/9/5 10:57,1.5,8,1.5,11,1.4,8
2012/9/5 10:58,1.5,9,1.5,11,2.2,13
2012/9/5 10:59,1.5,9,1.5,11,2.7,12
2012/9/5 11:00,1.3,9,1.5,11,2.6,13
2012/9/5 11:01,1.4,10,1.4,11,3,13
2012/9/5 11:02,1.4,11,1.4,10,2.7,12
2012/9/5 11:03,1.5,12,1.5,9,3.3,12
2012/9/5 11:04,1.6,12,1.6,9,2.5,13
2012/9/5 11:05,1.6,12,1.6,8,1.9,16
2012/9/5 11:06,1.6,13,1.6,12,3,13
2012/9/5 11:07,1.7,13,1.7,13,2.2,14
2012/9/5 11:08,1.7,13,1.7,13,2.4,11
2012/9/5 11:09,1.7,13,1.8,13,3.9,11
2012/9/5 11:10,1.7,13,1.7,13,3.2,12
2012/9/5 11:11,1.7,12,1.8,13,2.9,11
2012/9/5 11:12,1.7,12,1.7,13,2.2,10
2012/9/5 11:13,1.5,12,1.7,13,1.9,11
2012/9/5 11:14,1.6,12,1.6,13,2.7,13
2012/9/5 11:15,1.7,12,1.7,13,3,12
2012/9/5 11:16,1.8,12,1.8,13,3.1,12
2012/9/5 11:17,1.8,12,1.8,13,3.2,12
2012/9/5 11:18,1.8,12,1.8,13,2.4,12
2012/9/5 11:19,1.7,12,1.8,13,2.2,10
2012/9/5 11:20,1.6,11,1.7,13,1.3,11
2012/9/5 11:21,1.5,12,1.6,12,1.6,15
2012/9/5 11:22,1.4,12,1.5,12,1.4,13
2012/9/5 11:23,1.4,12,1.4,12,1.1,12
2012/9/5 11:24,1.3,12,1.4,12,1.4,12
2012/9/5 11:25,1.2,12,1.3,12,2.2,9
2012/9/5 11:26,1.1,12,1.2,12,2.4,11
2012/9/5 13:40,0.3,11,0.3,11,0.4,11
2012/9/5 13:41,0.5,10,0.5,10,0.6,8
2012/9/5 13:42,0.6,10,0.6,10,1.3,12
2012/9/5 13:43,0.8,10,0.8,10,2.1,10
2012/9/5 13:44,1,11,1,11,1.9,13
2012/9/5 13:45,1.1,11,1.1,11,2.6,11
2012/9/5 13:46,1.2,11,1.2,11,2.6,11
2012/9/5 13:47,1.1,12,1.2,11,1.5,14
2012/9/5 13:48,1.1,12,1.1,11,1.1,15
2012/9/5 13:49,1.1,12,1.1,11,2.4,15
2012/9/5 13:50,1.2,12,1.2,11,3.2,9
2012/9/5 13:51,1.2,12,1.2,11,3.2,7
2012/9/5 13:52,1.4,11,1.4,11,3.3,8
2012/9/5 13:53,1.5,11,1.5,11,3.3,7
2012/9/5 13:54,1.5,9,1.5,11,2.5,7
2012/9/5 13:55,1.6,8,1.6,8,3.5,6
2012/9/5 13:56,1.6,7,1.6,8,3.2,7
2012/9/5 13:57,1.7,7,1.7,7,3.1,7
2012/9/5 13:58,1.8,7,1.8,7,2.5,6
2012/9/5 13:59,1.8,6,1.8,7,2.1,6
2012/9/5 14:00,1.7,6,1.8,7,1.3,8
2012/9/5 14:01,1.7,6,1.7,7,2.7,6
2012/9/5 14:02,1.6,6,1.7,7,1.9,6
2012/9/5 14:03,1.6,6,1.6,7,2.1,6
2012/9/5 14:04,1.6,6,1.6,7,2.6,6
2012/9/5 14:05,1.5,6,1.5,7,2,5
2012/9/5 14:06,1.4,6,1.4,7,2,6
2012/9/5 14:07,1.3,6,1.4,7,2,6
2012/9/5 14:08,1.2,6,1.3,7,1.8,6
2012/9/5 14:09,1.2,6,1.2,6,1,5
2012/9/5 14:10,1.2,6,1.2,6,1.4,6
2012/9/5 14:11,1.1,6,1.2,6,1.4,6
2012/9/5 14:12,1,6,1.1,6,1.3,7
2012/9/5 14:13,0.9,6,1,6,0.6,8
2012/9/5 14:14,0.9,7,0.9,6,2.1,8
2012/9/5 14:15,0.9,7,0.9,6,2.1,7
2012/9/5 14:16,0.8,7,0.9,6,1.9,9
2012/9/5 14:17,0.9,7,0.9,6,2.4,7
2012/9/5 14:18,1,8,1,6,3.1,8
2012/9/5 14:19,1.1,8,1.1,6,3,8
2012/9/5 14:20,1.1,8,1.1,6,2.4,9
2012/9/5 14:21,1.2,9,1.2,8,2,8
2012/9/5 14:22,1.2,9,1.2,8,2.1,10
2012/9/5 14:23,1.3,9,1.3,9,2.2,9
2012/9/5 14:24,1.3,9,1.3,9,2.1,9
2012/9/5 14:25,1.3,9,1.3,9,2.1,9
2012/9/5 14:26,1.3,9,1.3,9,1.5,9
2012/9/5 14:27,1.2,9,1.3,9,1.3,8
2012/9/5 14:28,1.1,9,1.2,9,1.5,9
2012/9/5 14:29,1,9,1,9,1.4,10
2012/9/5 14:30,0.9,9,1,9,1.5,8
2012/9/5 14:31,0.9,9,0.9,9,0.4,9
2012/9/5 14:32,0.8,9,0.9,9,1.3,10
2012/9/5 14:33,0.8,9,0.8,9,1.3,9
2012/9/5 14:34,0.7,10,0.8,9,1.4,10
2012/9/5 14:35,0.7,10,0.7,9,1.1,12
2012/9/5 14:36,0.6,10,0.7,9,0.9,12
2012/9/5 14:37,0.6,11,0.6,9,1,12
2012/9/5 14:38,0.7,11,0.7,9,1,12
2012/9/5 14:39,0.7,11,0.7,9,1,12
2012/9/5 14:40,0.7,12,0.7,9,0.9,12
2012/9/5 14:41,0.7,12,0.7,9,0.8,10
2012/9/5 14:42,0.7,12,0.7,9,0.4,11
2012/9/5 14:43,0.6,11,0.6,9,0.3,9
2012/9/5 14:44,0.6,11,0.6,10,1.3,8
2012/9/5 14:45,0.6,10,0.6,10,1.3,8
2012/9/5 14:46,0.6,10,0.6,11,1,7
2012/9/5 14:47,0.6,9,0.6,11,0.5,5
2012/9/5 14:48,0.5,9,0.6,11,0.4,4
2012/9/5 14:49,0.5,8,0.5,11,0.6,4
2012/9/5 14:50,0.4,7,0.5,12,0.6,5
2012/9/5 14:51,0.4,7,0.4,12,0.8,6
2012/9/5 14:52,0.4,6,0.4,11,0.6,16
2012/9/5 14:53,0.4,6,0.4,11,0.5,12
2012/9/5 14:54,0.4,5,0.5,11,1.1,15
2012/9/5 14:55,0.4,4,0.4,10,1,14
2012/9/5 14:56,0.4,2,0.4,10,1,15
2012/9/5 14:57,0.4,16,0.4,9,1.1,14
2012/9/5 14:58,0.5,15,0.5,9,1.1,15
2012/9/5 14:59,0.5,14,0.5,8,1.3,14
2012/9/5 15:00,0.6,14,0.6,14,1.4,14
2012/9/5 15:01,0.7,14,0.7,14,1.6,13
2012/9/5 15:02,0.7,14,0.7,14,1.3,12
2012/9/5 15:03,0.8,14,0.8,14,1.6,15
2012/9/5 15:04,0.8,14,0.8,14,1.3,15
2012/9/5 15:05,0.8,14,0.8,14,1.1,16
2012/9/5 15:06,0.8,14,0.8,14,1.1,15
2012/9/5 15:07,0.8,14,0.8,14,1.3,15
2012/9/5 15:08,0.8,14,0.8,14,1.3,16
2012/9/5 15:09,0.9,14,0.9,14,1.4,16
2012/9/5 15:10,0.9,15,0.9,14,1.8,16
2012/9/5 15:11,0.8,15,0.9,14,0.9,13
2012/9/5 15:12,0.8,15,0.8,14,1,13
2012/9/5 15:13,0.8,15,0.8,14,1.5,13
2012/9/5 15:14,0.9,15,0.9,14,1.9,16
2012/9/5 15:15,0.9,15,0.9,14,1.8,16
2012/9/5 15:16,1,15,1,15,1.6,16
2012/9/5 15:17,1,15,1,15,1.4,16
2012/9/5 15:18,1,15,1.1,15,1.3,16
2012/9/5 15:19,1,15,1,15,1.4,16
2012/9/5 15:20,1,15,1,15,1.8,15
2012/9/5 15:21,1.1,15,1.1,15,1.8,15
2012/9/5 15:22,1.1,15,1.1,15,1.4,14
2012/9/5 15:23,1.2,15,1.2,15,1.5,16
2012/9/5 15:24,1.1,15,1.2,15,1.8,16
2012/9/5 15:25,1.1,15,1.1,15,2,16
2012/9/5 15:26,1.1,15,1.1,15,1.8,16
2012/9/5 15:27,1.1,16,1.1,15,1.6,1
2012/9/5 15:28,1.2,16,1.2,15,1.6,16
2012/9/5 15:29,1.2,16,1.2,15,2,16
2012/9/5 15:30,1.3,16,1.3,16,2.1,16
2012/9/5 15:31,1.3,16,1.3,16,1.9,15
2012/9/5 15:32,1.4,16,1.4,16,2.2,16
2012/9/5 15:33,1.3,16,1.4,16,1.6,16
2012/9/5 15:34,1.4,16,1.4,16,1.9,15
2012/9/5 15:35,1.4,16,1.4,16,1.8,16
2012/9/5 15:36,1.3,16,1.4,16,1.8,15
2012/9/5 15:37,1.4,16,1.4,16,2.1,15
2012/9/5 15:38,1.3,16,1.4,16,1.8,1
2012/9/5 15:39,1.3,15,1.3,16,2,14
2012/9/5 15:40,1.3,15,1.3,16,1.4,15
2012/9/5 15:41,1.1,15,1.2,16,0.9,15
2012/9/5 15:42,1,15,1.1,16,0.8,16
2012/9/5 15:43,0.9,15,1,16,0.5,14
2012/9/5 15:44,0.8,15,0.9,16,0.6,2
2012/9/5 15:45,0.7,15,0.8,16,0.8,2
2012/9/5 15:46,0.7,15,0.7,16,0.6,2
2012/9/5 15:47,0.6,15,0.7,16,1,2
2012/9/5 15:48,0.5,16,0.6,16,0.9,16
2012/9/5 15:49,0.4,16,0.5,15,0.6,16
2012/9/5 15:50,0.3,16,0.4,15,0.5,16
2012/9/5 15:51,0.4,16,0.4,15,0.8,13
2012/9/5 15:52,0.4,16,0.4,15,2.6,10
2012/9/5 15:53,0.6,16,0.6,15,4.3,9
2012/9/5 15:54,0.9,15,0.9,15,5.6,11
2012/9/5 15:55,1.1,14,1.1,14,5.2,10
2012/9/5 15:56,1.5,13,1.5,13,5,10
2012/9/5 15:57,1.6,12,1.6,12,5,10
2012/9/5 15:58,1.7,11,1.7,11,3.3,10
2012/9/5 15:59,2.1,11,2.1,11,6.1,10
2012/9/5 16:00,2.4,11,2.4,11,6.1,11
2012/9/5 16:01,2.7,10,2.7,10,5.2,10
2012/9/5 16:02,3,10,3,10,6.5,10
2012/9/5 16:03,3.1,10,3.1,10,5.5,10
2012/9/5 16:04,3.3,10,3.3,10,6.1,11
2012/9/5 16:05,3.3,10,3.3,10,5,9
2012/9/5 16:06,3.1,10,3.3,10,4.2,9
2012/9/5 16:07,3.1,10,3.1,10,4.2,10
2012/9/5 16:08,3.2,10,3.2,10,5.6,9
2012/9/5 16:09,3,10,3.2,10,4.4,11
2012/9/5 16:10,3,10,3,10,5.7,8
2012/9/5 16:11,3.1,10,3.1,10,6.4,10
2012/9/5 16:12,3,10,3.1,10,6.1,10
2012/9/5 16:13,3,10,3,10,5.4,9
2012/9/5 16:14,2.8,10,3,10,4.9,10
2012/9/5 16:15,2.7,10,2.8,10,4.2,10
2012/9/5 16:16,2.8,10,2.8,10,4.7,9
2012/9/5 16:17,2.8,10,2.8,10,5.5,9
2012/9/5 16:35,3.6,5,3.6,5,3.8,4
2012/9/5 16:36,2.5,4,3.6,5,3.8,4
2012/9/5 16:37,2.5,4,2.7,5,3.6,4
2012/9/5 16:38,2.5,4,2.5,5,3.8,3
2012/9/5 16:39,2.5,4,2.7,5,4.1,3
2012/9/5 16:40,2.7,4,2.7,5,4.3,4
2012/9/5 16:41,2.8,4,2.8,5,3.9,4
2012/9/5 16:42,2.7,4,2.7,5,3.2,6
2012/9/5 16:43,2.7,5,2.7,5,4.9,6
2012/9/5 16:44,2.7,5,2.7,5,4.2,6
2012/9/5 16:45,2.5,5,2.7,5,2.2,7
2012/9/5 16:46,2.5,5,2.5,4,4.5,7
2012/9/5 16:47,2.4,5,2.5,4,3.2,4
2012/9/5 16:48,2.5,6,2.5,4,3.9,6
2012/9/5 16:49,2.4,6,2.5,4,3.5,7
2012/9/5 16:50,2.3,6,2.4,4,3.3,6
2012/9/5 16:51,2.3,6,2.3,4,3.5,3
2012/9/5 16:52,2.3,6,2.3,4,3.8,4
2012/9/5 16:53,2.2,5,2.3,5,3.3,3
2012/9/5 16:54,2.2,5,2.2,5,2.6,4
2012/9/5 16:55,2.2,4,2.2,5,2.2,4
2012/9/5 16:56,2.1,4,2.2,5,2,3
2012/9/5 16:57,2.1,4,2.1,5,3,2
2012/9/5 16:58,2.1,3,2.1,6,2.4,4
2012/9/5 16:59,2.1,3,2.1,6,2.7,3
2012/9/5 17:00,2.1,3,2.1,6,3.3,2
2012/9/5 17:01,2.1,3,2.1,6,3.3,4
2012/9/5 17:02,2,3,2.1,6,2.4,5
2012/9/5 17:03,1.9,3,2,5,2.1,4
2012/9/5 17:04,1.8,3,1.9,5,1.8,3
2012/9/5 17:05,1.8,4,1.8,4,2.2,6
2012/9/5 17:06,2,4,2,4,3.7,6
2012/9/5 17:07,1.9,5,2,4,2.6,6
2012/9/5 17:08,1.9,5,1.9,3,3.2,6
2012/9/5 17:09,1.8,5,1.9,3,2.1,7
2012/9/5 17:10,1.6,6,1.8,3,0.8,5
2012/9/5 17:11,1.5,6,1.6,3,2,6
2012/9/5 17:12,1.6,6,1.6,3,3.2,5
2012/9/5 17:13,1.5,6,1.6,4,2.6,5
2012/9/5 17:14,1.5,6,1.5,4,1.5,7
2012/9/5 17:15,1.5,6,1.5,4,2.5,8
2012/9/5 17:16,1.4,6,1.5,4,3.3,5
2012/9/5 17:17,1.5,6,1.5,5,3.8,6
2012/9/5 17:18,1.6,6,1.6,5,4.1,6
2012/9/5 17:19,1.7,6,1.7,5,3.5,5
2012/9/5 17:20,1.8,6,1.8,6,2.4,5
2012/9/5 17:21,1.8,6,1.8,6,2,6
2012/9/5 17:22,1.7,6,1.8,6,2,6
2012/9/5 17:23,1.8,6,1.8,6,2.5,7
2012/9/5 17:24,1.8,6,1.8,6,2,7
2012/9/5 17:25,1.8,6,1.8,6,1.6,8
2012/9/5 17:26,1.7,6,1.8,6,1.6,8
2012/9/5 17:27,1.5,6,1.7,6,1.3,7
2012/9/5 17:28,1.3,6,1.5,6,1.1,9
2012/9/5 17:29,1.1,7,1.3,6,1.8,8
2012/9/5 17:30,1,7,1.1,6,1.3,7
2012/9/5 17:31,1,7,1,6,1.1,7
2012/9/5 17:32,0.9,7,1,6,1.1,9
2012/9/5 17:33,0.8,7,0.9,6,1.4,9
2012/9/5 17:34,0.7,7,0.8,6,0.3,8
2012/9/5 17:35,0.6,7,0.6,6,0.5,5
2012/9/5 17:36,0.5,7,0.5,6,0.9,4
2012/9/5 17:37,0.6,6,0.6,6,1.5,3
2012/9/5 17:38,0.6,6,0.6,6,2,3
2012/9/5 17:39,0.7,5,0.7,7,2.1,3
2012/9/5 20:24,1.3,4,1.3,4,1.3,5
2012/9/5 20:25,1.2,6,1.4,6,1.8,6
2012/9/5 20:26,1.2,5,1.3,6,1.8,4
2012/9/5 20:27,1.1,5,1.2,6,1.3,5
2012/9/5 20:28,1,5,1.1,6,1,5
2012/9/5 20:29,0.9,5,1,6,0.8,5
2012/9/5 20:30,0.8,5,0.9,6,0.6,3
2012/9/5 20:31,0.8,5,0.8,6,0.9,5
2012/9/5 20:32,0.7,5,0.8,6,0.6,5
2012/9/5 20:33,0.7,5,0.7,6,1,3
2012/9/5 20:34,0.7,5,0.7,6,1.1,3
2012/9/5 20:35,0.6,5,0.7,5,0.9,5
2012/9/5 20:36,0.6,5,0.6,5,0.9,5
2012/9/5 20:37,0.6,4,0.6,5,1.5,2
2012/9/5 20:38,0.6,4,0.6,5,1.6,3
2012/9/5 20:39,0.7,4,0.7,5,1.5,4
2012/9/5 20:40,0.8,4,0.8,5,1.5,4
2012/9/5 20:41,0.8,4,0.8,5,1.6,4
2012/9/5 20:42,0.8,4,0.8,4,1.6,4
2012/9/5 20:43,0.9,3,0.9,4,1.3,3
2012/9/5 20:44,0.9,3,0.9,4,1.4,2
2012/9/5 20:45,0.9,3,0.9,4,1,15
2012/9/5 20:46,0.9,3,0.9,4,1.5,2
2012/9/5 20:47,0.9,2,0.9,4,1.3,2
2012/9/5 20:48,0.9,2,0.9,4,1.9,2
2012/9/5 20:49,0.9,2,0.9,4,1.6,2
2012/9/5 20:50,0.9,2,0.9,4,1.1,2
2012/9/5 20:51,0.8,2,0.8,4,1.1,3
2012/9/5 20:52,0.8,2,0.8,4,1,2
2012/9/5 20:53,0.8,2,0.8,3,1.1,3
2012/9/5 20:54,0.8,2,0.8,3,1,3
2012/9/5 20:55,0.9,2,0.9,3,1.5,3
2012/9/5 20:56,0.9,2,0.9,3,1.3,3
2012/9/5 20:57,0.8,2,0.9,2,1.1,3
2012/9/5 20:58,0.9,2,0.9,2,1.4,3
2012/9/5 20:59,0.9,2,0.9,2,1.5,3
2012/9/5 21:00,0.9,3,0.9,2,1.5,3
2012/9/5 21:01,0.9,3,0.9,2,1.4,3
2012/9/5 21:02,1,3,1,3,1.1,2
2012/9/5 21:03,1,3,1,3,1,3
2012/9/5 21:04,1,3,1,3,0.9,4
2012/9/5 21:05,0.9,3,1,3,1.1,2
2012/9/5 21:06,0.9,3,0.9,3,1.1,3
2012/9/5 21:07,0.9,3,0.9,3,1.1,3
2012/9/5 21:08,0.8,3,0.9,3,0.9,4
2012/9/5 21:09,0.8,3,0.8,3,0.6,3
2012/9/5 21:10,0.7,3,0.8,3,0.9,3
2012/9/5 21:11,0.6,4,0.7,3,0.9,4
2012/9/5 21:12,0.6,4,0.6,3,0.4,4
2012/9/5 21:13,0.5,4,0.6,3,0.5,2
2012/9/5 21:14,0.5,4,0.5,3,0.6,2
2012/9/5 21:15,0.5,4,0.5,3,0.9,16
2012/9/5 21:16,0.4,4,0.5,3,0.5,16
2012/9/5 21:17,0.4,3,0.4,3,1,16
2012/9/5 21:18,0.4,3,0.4,3,1.3,16
2012/9/5 21:19,0.5,2,0.5,3,1.3,16
2012/9/5 21:20,0.5,1,0.5,3,1.1,16
2012/9/5 21:21,0.5,1,0.5,4,1.3,15
2012/9/5 21:22,0.6,1,0.6,4,1.4,1
2012/9/5 21:23,0.7,16,0.7,16,1.5,1
2012/9/5 21:24,0.7,16,0.7,16,1.3,1
2012/9/5 21:25,0.7,16,0.8,16,1.1,1
2012/9/5 21:26,0.8,16,0.8,16,0.9,1
2012/9/5 21:27,0.7,1,0.8,16,0.8,3
2012/9/5 21:28,0.7,1,0.7,16,0.9,2
2012/9/5 21:29,0.7,1,0.7,16,0.9,1
2012/9/5 21:30,0.7,1,0.7,16,1,3
2012/9/5 21:31,0.7,2,0.7,16,1.1,3
2012/9/5 21:32,0.7,2,0.7,16,1.3,3
2012/9/5 21:33,0.7,2,0.7,16,0.9,6
2012/9/5 21:34,0.7,3,0.7,16,1,6
2012/9/5 21:35,0.6,3,0.7,16,0.4,6
2012/9/5 21:36,0.6,4,0.6,16,0.3,8
2012/9/5 21:37,0.5,4,0.6,1,0.5,10
2012/9/5 21:38,0.5,4,0.5,1,1.1,9
2012/9/5 21:39,0.5,5,0.5,1,1,10
2012/9/5 21:40,0.5,6,0.5,1,1,9
2012/9/5 21:41,0.5,7,0.5,2,1.4,9
2012/9/5 21:42,0.4,7,0.5,2,0.8,11
2012/9/5 21:43,0.4,8,0.4,2,1.5,9
2012/9/5 21:44,0.4,9,0.4,3,1.1,10
2012/9/5 21:45,0.4,10,0.4,3,1.8,10
2012/9/5 21:46,0.6,10,0.6,3,2,10
2012/9/5 21:47,0.7,10,0.7,10,1.8,11
2012/9/5 21:48,0.8,10,0.8,10,1.9,12
2012/9/5 21:49,0.8,11,0.8,10,1.6,12
